FW4661 Weather Reports


Display with metric or nautical units.
time (UTC)temp
F
wind
direction
speed
MPH
gust
MPH
rain 1hr
in
rain 24hr
in
rain mn
in
humidity
%
barometer
mb
20260509150004 47 0 0.0 0.0 0.00 0.00 0.00 82 1009.9
20260509145003 46 357 0.0 9.0 0.00 0.00 0.00 82 1010.1
20260509144213 46 353 0.0 9.0 0.00 0.00 0.00 80 1010.0
20260509143004 46 0 0.0 0.0 0.00 0.00 0.00 80 1010.4
20260509142003 46 0 0.0 0.0 0.00 0.00 0.00 80 1010.5
20260509141003 46 0 0.0 0.0 0.00 0.00 0.00 79 1010.6
20260509140005 46 0 0.0 0.0 0.00 0.00 0.00 79 1010.7
20260509135004 46 0 0.0 0.0 0.00 0.00 0.00 79 1010.7
20260509134003 46 0 0.0 0.0 0.00 0.00 0.00 79 1010.9
20260509133004 46 0 0.0 0.0 0.00 0.00 0.00 79 1011.0
20260509132004 47 0 0.0 0.0 0.00 0.00 0.00 80 1011.1
20260509131003 47 0 0.0 0.0 0.00 0.00 0.00 81 1011.3
20260509130004 47 0 0.0 0.0 0.00 0.00 0.00 81 1011.6
20260509125003 47 0 0.0 0.0 0.00 0.00 0.00 82 1011.5
20260509124214 47 0 0.0 0.0 0.00 0.00 0.00 82 1011.7
20260509123003 47 0 0.0 0.0 0.00 0.00 0.00 82 1011.6
20260509122004 47 0 0.0 0.0 0.00 0.00 0.00 82 1011.7
20260509121003 47 0 0.0 0.0 0.00 0.00 0.00 82 1011.8
20260509120004 47 0 0.0 0.0 0.00 0.00 0.00 82 1011.9
20260509115004 47 0 0.0 0.0 0.00 0.00 0.00 82 1011.7
20260509114004 47 0 0.0 0.0 0.00 0.00 0.00 82 1011.7
20260509113003 47 0 0.0 0.0 0.00 0.00 0.00 82 1012.0
20260509112216 47 0 0.0 0.0 0.00 0.00 0.00 82 1012.0
20260509111003 47 0 0.0 0.0 0.00 0.00 0.00 82 1011.9
20260509110213 47 0 0.0 0.0 0.00 0.00 0.00 82 1012.2
20260509105004 47 0 0.0 0.0 0.00 0.00 0.00 82 1012.0
20260509104004 47 0 0.0 0.0 0.00 0.00 0.00 82 1011.8
20260509103003 47 0 0.0 0.0 0.00 0.00 0.00 82 1011.5
20260509102003 48 0 0.0 0.0 0.00 0.00 0.00 82 1011.7
20260509101004 48 0 0.0 0.0 0.00 0.00 0.00 82 1011.6
20260509100004 48 0 0.0 0.0 0.00 0.00 0.00 81 1011.4
20260509095215 48 0 0.0 0.0 0.00 0.00 0.00 81 1011.5
20260509094004 49 0 0.0 0.0 0.00 0.00 0.00 81 1011.7
20260509093003 49 0 0.0 0.0 0.00 0.00 0.00 82 1011.2
20260509092003 49 0 0.0 0.0 0.00 0.00 0.00 82 1011.3
20260509091214 50 0 0.0 0.0 0.00 0.00 0.00 82 1011.5
20260509090003 50 0 0.0 0.0 0.00 0.00 0.00 81 1011.4
20260509085215 50 0 0.0 0.0 0.00 0.00 0.00 81 1011.5
20260509084004 51 0 0.0 0.0 0.00 0.00 0.00 81 1011.5
20260509083003 51 0 0.0 0.0 0.00 0.00 0.00 81 1011.4
20260509082003 51 0 0.0 0.0 0.00 0.00 0.00 80 1011.2
20260509081214 51 0 0.0 0.0 0.00 0.00 0.00 80 1011.3
20260509080004 51 0 0.0 0.0 0.00 0.00 0.00 80 1011.3
20260509075003 52 0 0.0 0.0 0.00 0.00 0.00 79 1011.4
20260509074004 52 0 0.0 0.0 0.00 0.00 0.00 79 1010.9
20260509073004 53 0 0.0 0.0 0.00 0.00 0.00 78 1010.9
20260509072003 53 0 0.0 0.0 0.00 0.00 0.00 78 1010.8
20260509071004 54 0 0.0 0.0 0.00 0.00 0.00 78 1010.5
20260509070216 54 0 0.0 0.0 0.00 0.00 0.00 78 1010.5
20260509065003 55 0 0.0 0.0 0.00 0.00 0.00 79 1010.5
20260509064003 56 0 0.0 0.0 0.00 0.00 0.00 78 1010.3
20260509063004 56 0 0.0 0.0 0.00 0.00 0.00 78 1010.4
20260509062003 56 360 0.0 1.0 0.00 0.00 0.00 78 1010.4
20260509061003 56 360 0.0 2.0 0.00 0.00 0.00 78 1010.6
20260509060216 56 336 0.0 4.0 0.00 0.00 0.00 78 1010.6
20260509055003 57 0 0.0 0.0 0.00 0.00 0.00 78 1010.4
20260509054004 57 0 0.0 0.0 0.00 0.00 0.00 79 1010.8
20260509053214 57 345 0.0 7.0 0.00 0.00 0.00 78 1010.8
20260509052215 57 354 0.0 14.0 0.00 0.00 0.00 77 1010.8
20260509051216 58 2 0.0 20.0 0.00 0.00 0.00 77 1010.5
20260509050004 58 341 3.0 20.0 0.00 0.00 0.00 76 1010.6
20260509045003 58 355 0.0 24.0 0.00 0.00 0.00 76 1010.7
20260509044003 58 360 0.0 1.0 0.00 0.00 0.00 76 1010.9
20260509043215 58 0 0.0 0.0 0.00 0.00 0.00 75 1010.7
20260509042216 59 0 0.0 0.0 0.00 0.00 0.00 75 1011.0
20260509041217 59 0 0.0 0.0 0.00 0.01 0.00 73 1010.8
20260509040004 60 0 0.0 0.0 0.00 0.01 0.00 72 1010.7
20260509035003 60 338 0.0 21.0 0.00 0.01 0.00 72 1010.8
20260509034215 61 343 2.0 22.0 0.00 0.01 0.00 71 1010.8
20260509033004 61 8 2.0 20.0 0.00 0.01 0.00 69 1010.8
20260509032003 62 346 0.0 65.0 0.00 0.01 0.00 69 1010.7
20260509031003 62 353 2.0 42.0 0.00 0.01 0.00 68 1010.8
20260509030004 62 349 1.0 11.0 0.00 0.01 0.00 68 1011.0
20260509025004 62 312 1.0 17.0 0.00 0.01 0.00 67 1010.8
20260509024003 62 15 5.0 17.0 0.00 0.01 0.00 66 1010.8
20260509023004 63 357 5.0 21.0 0.00 0.01 0.00 64 1010.5
20260509022217 63 1 8.0 26.0 0.00 0.01 0.00 63 1010.6
20260509021003 64 350 12.0 27.0 0.00 0.01 0.00 62 1010.5
20260509020003 64 2 6.0 23.0 0.00 0.01 0.00 62 1010.4
20260509015215 64 3 6.0 17.0 0.00 0.01 0.00 61 1010.6
20260509014004 65 347 3.0 16.0 0.00 0.01 0.00 61 1010.8
20260509013003 65 35 1.0 16.0 0.00 0.01 0.00 61 1011.1
20260509012004 66 349 1.0 17.0 0.00 0.01 0.00 61 1010.9
20260509011003 66 334 8.0 21.0 0.00 0.01 0.00 59 1011.3
20260509010003 66 243 1.0 5.0 0.00 0.01 0.00 56 1011.2
20260509005004 66 275 1.0 7.0 0.00 0.01 0.00 57 1011.4
20260509004003 66 261 2.0 12.0 0.00 0.01 0.00 59 1011.5
20260509003003 65 222 2.0 8.0 0.00 0.01 0.00 60 1011.4
20260509002004 65 154 2.0 7.0 0.00 0.01 0.00 61 1011.9
20260509001004 65 200 2.0 4.0 0.00 0.01 0.00 62 1011.9
20260509000004 65 205 2.0 7.0 0.00 0.01 0.00 63 1012.0
20260508235216 65 204 2.0 6.0 0.00 0.01 0.00 63 1011.7
20260508234003 65 209 2.0 8.0 0.00 0.01 0.00 64 1012.0
20260508233004 64 234 4.0 9.0 0.00 0.01 0.00 65 1012.2
20260508232214 64 222 4.0 7.0 0.00 0.01 0.00 68 1012.1
20260508231004 63 197 2.0 6.0 0.00 0.01 0.00 69 1011.9
20260508230004 62 214 1.0 4.0 0.00 0.01 0.00 71 1012.0
20260508225003 61 200 3.0 10.0 0.00 0.01 0.00 72 1012.0
20260508224218 61 185 1.0 10.0 0.00 0.01 0.00 72 1012.1
20260508223003 61 187 6.0 19.0 0.00 0.01 0.00 74 1012.4
20260508222003 60 201 8.0 24.0 0.00 0.01 0.00 80 1012.2
20260508221004 59 174 8.0 24.0 0.00 0.01 0.00 81 1012.2
20260508220003 58 193 6.0 19.0 0.00 0.01 0.00 81 1012.2
20260508215003 58 202 6.0 22.0 0.00 0.01 0.00 82 1012.0
20260508214004 58 194 7.0 33.0 0.00 0.01 0.00 82 1011.5
20260508213004 58 203 10.0 36.0 0.00 0.01 0.00 82 1011.7
20260508212003 58 191 8.0 36.0 0.00 0.01 0.00 82 1011.6
20260508211216 57 179 10.0 39.0 0.00 0.01 0.00 82 1011.9
20260508210004 57 195 8.0 19.0 0.00 0.01 0.00 83 1011.9
20260508205003 57 198 5.0 27.0 0.00 0.01 0.00 83 1011.4
20260508204003 57 194 8.0 23.0 0.00 0.01 0.00 83 1011.5
20260508203215 57 195 5.0 21.0 0.00 0.01 0.00 82 1011.4
20260508202003 56 173 12.0 38.0 0.00 0.01 0.00 82 1011.2
20260508201003 56 190 10.0 23.0 0.00 0.01 0.00 82 1010.9
20260508200004 56 181 5.0 23.0 0.00 0.01 0.00 82 1010.9
20260508195003 56 180 8.0 21.0 0.00 0.01 0.00 83 1010.4
20260508194003 56 147 8.0 27.0 0.00 0.01 0.00 82 1010.3
20260508193004 56 190 11.0 27.0 0.00 0.01 0.00 82 1010.1
20260508192003 56 176 8.0 42.0 0.00 0.01 0.00 82 1009.8
20260508191003 56 187 9.0 33.0 0.00 0.01 0.00 82 1009.5
20260508190004 56 193 14.0 41.0 0.00 0.01 0.00 81 1009.2
20260508185003 56 189 13.0 33.0 0.00 0.01 0.00 80 1008.8
20260508184215 56 172 9.0 86.0 0.00 0.01 0.00 79 1008.8
20260508183003 56 172 17.0 76.0 0.00 0.01 0.00 77 1008.5
20260508182004 56 184 31.0 76.0 0.00 0.01 0.00 75 1008.4
20260508181003 56 178 21.0 54.0 0.00 0.01 0.00 74 1008.1
20260508180004 57 185 21.0 62.0 0.00 0.01 0.00 72 1007.9
20260508175215 57 178 10.0 46.0 0.00 0.01 0.00 70 1007.8
20260508174003 56 209 15.0 34.0 0.00 0.01 0.00 65 1007.4
20260508173004 57 219 11.0 27.0 0.00 0.01 0.00 65 1006.8
20260508172218 57 179 5.0 25.0 0.00 0.01 0.00 63 1006.5
20260508171003 58 216 8.0 16.0 0.00 0.01 0.00 63 1006.3
20260508170003 59 212 0.0 31.0 0.00 0.01 0.00 63 1005.8
20260508165004 59 248 3.0 23.0 0.00 0.01 0.00 62 1006.2
20260508164003 59 234 8.0 23.0 0.00 0.01 0.00 64 1005.9
20260508163004 58 278 2.0 62.0 0.00 0.01 0.00 65 1005.8
20260508162003 57 269 18.0 44.0 0.00 0.01 0.00 66 1005.7
20260508161003 58 234 2.0 53.0 0.00 0.01 0.00 65 1005.9
20260508160004 58 239 12.0 53.0 0.00 0.01 0.00 65 1005.9
20260508155216 58 272 5.0 26.0 0.00 0.01 0.00 65 1005.3
20260508154003 58 265 10.0 30.0 0.00 0.01 0.00 63 1005.8
20260508153003 59 179 0.0 34.0 0.00 0.01 0.00 63 1005.6
20260508152004 59 359 11.0 27.0 0.00 0.01 0.00 62 1005.3
20260508151003 60 287 7.0 21.0 0.00 0.01 0.00 61 1006.1